Location: ?????
(30.2541°N, 31.0910°E)
Time: 21:47:07
(UTC+00:00)

USA 307 - Visible Passes

Search period start: 30 March 2023 00:00
Search period end: 09 April 2023 00:00
Orbit: 495 x 502 km, 54.0° (Epoch: 10 March)

Date Brightness Start Highest point End Pass type
(mag) Time Alt. Az. Time Alt. Az. Time Alt. Az.
06 Apr 5.3 02:57:26 10° SSE 02:59:44 16° ESE 03:02:04 10° E visible
07 Apr 5.4 02:31:28 10° SSE 02:33:28 14° ESE 02:35:29 10° E visible
08 Apr 5.4 02:05:28 10° SSE 02:07:02 12° ESE 02:08:36 10° E visible
